sat.trackr.live / text

‹ back to catalog

STARLINK-3640

NORAD 51988 · 2022-025AJ

PAYLOAD ACTIVE UNKNOWN

§ Identity

Operator
Country
US
Launch date
2022-03-09
Launch site
AFETR
Launch vehicle
Mass (kg)
RCS (m²)

Purposes: comms

External: N2YO · Heavens-Above · Gunter

§ Orbital elements

Epoch: 2026-05-25T01:42:21.941856Z

Period
95.44 min
Inclination
53.2136°
Eccentricity
0.0001530
Mean motion
15.08842664 rev/d
Perigee alt
538.7 km
Apogee alt
540.8 km
Semi-major
6,917.9 km
B*
2.6681e-5
RAAN
56.2304°
Arg perigee
91.2756°
Mean anomaly
268.8411°
Rev number
23,259

§ Raw data

STARLINK-36401 51988U 22025AJ  26145.07108729  .00000137  00000+0  26681-4 0  99912 51988  53.2136  56.2304 0001530  91.2756 268.8411 15.08842664232597

JSON: /api/v1/satellites/51988 · /tle

For live sub-satellite position, see the globe view (requires WebGL).

§ Visibility from observer

Set your observer location to see the next 7 days of passes ≥ 10°. The values pass through the URL so the page stays shareable.

No JS? Fill the form by hand. The geolocation button needs JavaScript.